GAOFEN-8

Last updated on Mon Dec 15 2025 00:02:37 GMT+0000 (Coordinated Universal Time)

1 40701U 15030A 25348.33066728 .00014761 00000+0 38833-3 0 9994 2 40701 97.6911 166.5477 0011684 132.2562 227.9676 15.38609485582951
UTC large
Height (km)
Speed (km/s)
/
Latitude / Longitude
Inclination (degrees)
Orbital Period (minutes)
Azimuth
Elevation
Range (km)
Doppler Factor

Next 0 passes for location: London (51.5072 / 0.1276)

Sorry there are no passes over London.